Regional Weather Roundup
Issued by NWS Kansas City/Pleasant Hill, MO

Home | Current Version | Previous Version | Text Only | Print | Product List | Glossary On
Versions: 1 2 3 4 5 6 7 8 9 10 11 12 13 14 15 16 17 18 19 20 21 22 23 24 25 26 27 28 29 30 31 32 33 34 35 36 37 38 39 40 41 42 43 44 45 46 47 48 49 50
000
ASUS43 KEAX 261811
RWREAX

WEATHER ROUNDUP FOR EASTERN KANSAS AND NORTHWEST MISSOURI
NATIONAL WEATHER SERVICE KANSAS CITY/PLEASANT HILL MO
100 PM CDT SUN APR 26 2015

KSZ040-057-103>105-MOZ028-029-037-043-261900-
...KANSAS CITY METROPOLITAN AREA...

CITY           SKY/WX    TMP DP  RH WIND       PRES   REMARKS
K.C. INTL      CLOUDY    54  44  69 NE10      29.99F
6HR MIN TEMP:  47; 6HR MAX TEMP:  56;

K.C. DOWNTOWN  CLOUDY    55  43  63 E13       29.99S
6HR MIN TEMP:  49; 6HR MAX TEMP:  56;

LEES SUMMIT    CLOUDY    54  43  66 E13       29.99S
6HR MIN TEMP:  47; 6HR MAX TEMP:  54;

OLATHE - IXD   CLOUDY    52  43  71 NE12G20   29.98S
6HR MIN TEMP:  47; 6HR MAX TEMP:  53;

OLATHE - OJC   CLOUDY    52  44  74 NE14      29.97S
6HR MIN TEMP:  47; 6HR MAX TEMP:  53; 6HR PCP: TRACE;

LAWRENCE       CLOUDY    54  43  66 E16       29.98F

$$

MOZ001>008-011>017-020>025-030>033-038>040-044>046-053-054-261900-
...NORTHERN AND CENTRAL MISSOURI...

CITY           SKY/WX    TMP DP  RH WIND       PRES   REMARKS
ST. JOSEPH     MOSUNNY   59  42  53 NE12G23   30.00F
6HR MIN TEMP:  47; 6HR MAX TEMP:  59;

MOSBY          CLOUDY    55  41  58 NE13      29.99F
WARRENSBURG    CLOUDY    54  43  66 NE9       29.98F
WHITEMAN AFB   PTSUNNY   53  44  71 NE12G17   29.96F
6HR MIN TEMP:  47; 6HR MAX TEMP:  55; 6HR PCP: TRACE;

CLINTON        CLOUDY    52  45  76 E9G16     29.97S
SEDALIA        PTSUNNY   59  45  59 NE13      29.97F
6HR MIN TEMP:  48; 6HR MAX TEMP:  57;

WARSAW         NOT AVBL
MARSHALL       MOSUNNY   61  45  55 NE9       29.99F
CHILLICOTHE      N/A     60  39  45 E9        30.02F
6HR MIN TEMP:  47; 6HR MAX TEMP:  60;

MOBERLY        SUNNY     59  34  38 NE17      30.00F
KIRKSVILLE     SUNNY     58  39  49 NE13      30.02S
6HR MIN TEMP:  41; 6HR MAX TEMP:  58;


$$

MOZ041-047>049-056>058-063>065-088>090-097-261900-
...EASTERN AND SOUTHERN MISSOURI...

CITY           SKY/WX    TMP DP  RH WIND       PRES   REMARKS
ST. LOUIS INTL MOSUNNY   60  37  42 N13G20    29.96F
6HR MIN TEMP:  48; 6HR MAX TEMP:  60;

SPIRIT OF STL  MOSUNNY   59  36  42 NE10G21   29.95S
COLUMBIA       SUNNY     60  39  45 NE14G20   29.97S
JEFFERSON CITY MOSUNNY   59  39  47 E8        29.95F
MEXICO         SUNNY     59  45  58 NE13G18   29.99S
HANNIBAL       SUNNY     61  28  29 E13G18    30.00F
ROLLA          CLOUDY    55  43  63 E8        29.92F
LEBANON        CLOUDY    48  45  87 NE13      29.94S
OSAGE BEACH    CLOUDY    54  43  66 E10       29.95F
SPRINGFIELD    CLOUDY    52  45  77 NE14      29.91R
BRANSON        CLOUDY    57  48  72 E8        29.89F
NEVADA         CLOUDY    54  45  71 NE14      29.94F
JOPLIN         CLOUDY    57  49  74 E12G21    29.89F
WEST PLAINS    CLOUDY    51  44  77 NE8       29.92S

$$

IAZ060-094-KSZ022-034>040-054-083-096-NEZ052-066-093-261900-
...KANSAS...SOUTHEAST NEBRASKA AND IOWA...

CITY           SKY/WX    TMP DP  RH WIND       PRES   REMARKS
TOPEKA         CLOUDY    53  44  71 NE13      29.99S
6HR MIN TEMP:  49; 6HR MAX TEMP:  54;

MANHATTAN      CLOUDY    52  44  74 E15       29.97F
EMPORIA        CLOUDY    51  45  79 NE17      29.94S
CHANUTE        CLOUDY    55  47  74 NE17      29.91S
WICHITA        CLOUDY    55  47  74 NE20      29.89S
OMAHA          MOSUNNY   58  40  51 NE13G21   30.05F
LINCOLN        MOSUNNY   57  41  55 E15G22    30.04F
FALLS CITY     CLOUDY    55  42  61 E13       30.01F
LAMONI         SUNNY     59  37  44 VRB6      30.02F
DES MOINES     MOSUNNY   60  29  30 NE13G21   30.05F

$$




USA.gov is the U.S. government's official web portal to all federal, state and local government web resources and services.